TimeCST,TemperatureF,Dew PointF,Humidity,Sea Level PressureIn,VisibilityMPH,Wind Direction,Wind SpeedMPH,Gust SpeedMPH,PrecipitationIn,Events,Conditions,WindDirDegrees,DateUTC
12:38 AM,43.0,41.0,93,30.17,1.8,East,10.4,-,N/A,,Overcast,80,2013-01-27 06:38:00
12:53 AM,43.0,42.1,97,30.17,1.5,East,8.1,-,N/A,,Overcast,90,2013-01-27 06:53:00
1:53 AM,43.0,42.1,97,30.17,1.0,East,8.1,-,N/A,,Overcast,80,2013-01-27 07:53:00
2:19 AM,43.0,42.1,97,30.18,0.8,East,4.6,-,N/A,,Overcast,90,2013-01-27 08:19:00
2:53 AM,43.0,42.1,97,30.17,0.8,East,6.9,-,N/A,,Overcast,90,2013-01-27 08:53:00
3:53 AM,43.0,42.1,97,30.16,0.5,East,5.8,-,N/A,Fog,Fog,90,2013-01-27 09:53:00
4:53 AM,43.0,42.1,97,30.14,0.8,East,5.8,-,N/A,,Mist,90,2013-01-27 10:53:00
5:53 AM,43.0,43.0,100,30.14,0.8,East,5.8,-,N/A,,Overcast,90,2013-01-27 11:53:00
6:09 AM,43.0,43.0,100,30.15,1.0,ENE,4.6,-,N/A,,Overcast,70,2013-01-27 12:09:00
6:16 AM,43.0,43.0,100,30.15,0.8,East,4.6,-,N/A,,Overcast,80,2013-01-27 12:16:00
6:53 AM,43.0,43.0,100,30.16,0.5,East,5.8,-,N/A,Fog,Fog,90,2013-01-27 12:53:00
7:15 AM,44.1,43.0,96,30.16,0.2,East,6.9,-,N/A,Fog,Fog,90,2013-01-27 13:15:00
7:53 AM,44.1,43.0,96,30.16,0.2,East,5.8,-,N/A,Fog,Fog,80,2013-01-27 13:53:00
8:53 AM,45.0,44.1,97,30.17,0.2,East,5.8,-,0.00,Fog,Fog,90,2013-01-27 14:53:00
9:53 AM,46.0,45.0,96,30.17,0.2,East,8.1,-,N/A,Fog,Fog,100,2013-01-27 15:53:00
10:29 AM,46.9,46.0,97,30.16,0.5,ESE,6.9,-,N/A,Fog,Fog,110,2013-01-27 16:29:00
10:49 AM,48.2,46.4,93,30.16,1.2,East,3.5,-,N/A,,Overcast,90,2013-01-27 16:49:00
10:53 AM,48.9,48.0,97,30.16,1.8,ESE,4.6,-,N/A,,Overcast,110,2013-01-27 16:53:00
11:09 AM,48.9,48.0,97,30.16,2.0,ENE,4.6,-,N/A,,Overcast,60,2013-01-27 17:09:00
11:53 AM,51.1,50.0,96,30.13,2.5,ESE,4.6,-,N/A,,Overcast,110,2013-01-27 17:53:00
12:27 PM,53.1,51.1,93,30.12,2.5,SSE,5.8,-,N/A,,Overcast,150,2013-01-27 18:27:00
12:37 PM,53.1,51.1,93,30.11,3.0,SE,9.2,-,N/A,,Overcast,140,2013-01-27 18:37:00
12:53 PM,54.0,51.1,90,30.09,4.0,SSE,9.2,-,N/A,,Overcast,150,2013-01-27 18:53:00
1:53 PM,55.9,52.0,87,30.06,4.0,South,5.8,-,N/A,,Overcast,170,2013-01-27 19:53:00
2:53 PM,57.0,53.1,87,30.04,4.0,ESE,4.6,-,N/A,,Overcast,110,2013-01-27 20:53:00
3:53 PM,59.0,55.0,87,30.02,4.0,ESE,6.9,-,N/A,,Overcast,110,2013-01-27 21:53:00
4:12 PM,60.1,55.0,83,30.01,4.0,ESE,6.9,-,N/A,,Haze,110,2013-01-27 22:12:00
4:53 PM,61.0,55.0,81,30.00,5.0,East,5.8,-,N/A,,Haze,80,2013-01-27 22:53:00
5:53 PM,57.9,55.0,90,29.99,5.0,East,4.6,-,N/A,,Partly Cloudy,100,2013-01-27 23:53:00
6:53 PM,57.0,55.0,93,30.00,5.0,East,5.8,-,N/A,,Overcast,80,2013-01-28 00:53:00
7:53 PM,59.0,55.9,90,30.01,7.0,East,4.6,-,N/A,,Overcast,90,2013-01-28 01:53:00
8:53 PM,60.1,57.0,90,30.00,8.0,East,4.6,-,N/A,,Overcast,100,2013-01-28 02:53:00
9:53 PM,60.1,57.0,90,30.00,7.0,ENE,3.5,-,N/A,,Overcast,70,2013-01-28 03:53:00
10:53 PM,64.9,59.0,81,30.00,10.0,South,10.4,-,N/A,,Overcast,170,2013-01-28 04:53:00
11:53 PM,64.9,60.1,84,30.01,10.0,South,6.9,-,N/A,,Overcast,180,2013-01-28 05:53:00